Weather History for KBFM - August, 2013

Change the Weather History Date:

Thursday, August 29, 2013

  Actual Average Record
Temperature  
Mean Temperature 80 °F -  
Max Temperature 91 °F 87 °F 99 °F (2011)
Min Temperature 70 °F 72 °F 70 °F (2011)
Cooling Degree Days 15    
Growing Degree Days 30 (Base 50)    
Moisture  
Dew Point 68 °F    
Average Humidity 70    
Maximum Humidity 93    
Minimum Humidity 46    
Precipitation  
Precipitation 0.00 in - - ()
Sea Level Pressure  
Sea Level Pressure 30.04 in    
Wind  
Wind Speed 3 mph (WSW)    
Max Wind Speed 8 mph    
Max Gust Speed -    
Visibility 10 miles    
Events      
Averages and records for this station are not official NWS values.
T = Trace of Precipitation, MM = Missing Value Source: NWS Daily Summary

Daily Weather History Graph

Daily Weather History Graph

Search for Another Location

Airport or City:

Trip Planner

Search our weather history database for the weather conditions in past years. The results will help you decide how hot, cold, wet, or windy it might be!

Date:

Astronomy

Aug. 29, 2013 Rise Set
Actual Time 6:27 AM CDT 7:18 PM CDT
Civil Twilight 6:02 AM CDT 7:43 PM CDT
Nautical Twilight 5:33 AM CDT 8:12 PM CDT
Astronomical Twilight 5:03 AM CDT 8:41 PM CDT
Moon 12:30 AM CDT (8/29) 2:34 PM CDT (8/29)
Length of Visible Light 13h 40m
Length of Day
12h 51m
Last Quarter, 38% of the Moon is Illuminated
Aug 29
Last Quarter
Sep 5
New
Sep 12
First Quarter
Sep 19
Full
Sep 26
Last Quarter

Hourly Weather History & Observations

Time (CDT) Temp. Heat Index Dew Point Humidity Pressure Visibility Wind Dir Wind Speed Gust Speed Precip Events Conditions
12:53 AM 73.0 °F - 69.1 °F 87% 30.06 in 10.0 mi Calm Calm - N/A   Partly Cloudy
1:53 AM 71.1 °F - 68.0 °F 90% 30.06 in 10.0 mi WNW 3.5 mph - N/A   Clear
2:53 AM 71.1 °F - 68.0 °F 90% 30.05 in 10.0 mi Calm Calm - N/A   Clear
3:18 AM 71.6 °F - 68.0 °F 88% 30.04 in 10.0 mi WNW 3.5 mph - N/A   Clear
3:53 AM 71.1 °F - 68.0 °F 90% 30.04 in 10.0 mi WNW 3.5 mph - N/A   Clear
4:53 AM 71.1 °F - 68.0 °F 90% 30.05 in 10.0 mi WNW 4.6 mph - N/A   Partly Cloudy
5:53 AM 70.0 °F - 68.0 °F 93% 30.06 in 10.0 mi WNW 3.5 mph - N/A   Partly Cloudy
6:53 AM 70.0 °F - 68.0 °F 93% 30.08 in 8.0 mi Calm Calm - N/A   Partly Cloudy
7:53 AM 75.9 °F - 70.0 °F 82% 30.09 in 10.0 mi NW 3.5 mph - N/A   Clear
8:53 AM 82.0 °F 85.9 °F 70.0 °F 67% 30.09 in 10.0 mi NNE 3.5 mph - N/A   Partly Cloudy
9:53 AM 84.0 °F 87.0 °F 68.0 °F 58% 30.09 in 10.0 mi NE 3.5 mph - N/A   Partly Cloudy
10:53 AM 84.9 °F 87.6 °F 66.9 °F 55% 30.09 in 10.0 mi East 4.6 mph - N/A   Partly Cloudy
11:53 AM 86.0 °F 89.4 °F 68.0 °F 55% 30.08 in 10.0 mi ESE 5.8 mph - N/A   Scattered Clouds
12:53 PM 89.1 °F 92.9 °F 68.0 °F 50% 30.06 in 10.0 mi SE 5.8 mph - N/A   Partly Cloudy
1:53 PM 89.1 °F 92.1 °F 66.9 °F 48% 30.04 in 10.0 mi SE 6.9 mph - N/A   Clear
2:53 PM 90.0 °F 92.8 °F 66.9 °F 46% 30.02 in 10.0 mi SE 8.1 mph - N/A   Scattered Clouds
3:53 PM 89.1 °F 93.7 °F 69.1 °F 52% 30.01 in 10.0 mi SSE 8.1 mph - N/A   Scattered Clouds
4:53 PM 88.0 °F 92.9 °F 70.0 °F 55% 30.00 in 10.0 mi SSE 8.1 mph - N/A   Clear
5:53 PM 87.1 °F 90.6 °F 68.0 °F 53% 30.00 in 10.0 mi SSW 6.9 mph - N/A   Clear
6:53 PM 82.9 °F 85.0 °F 66.0 °F 56% 30.00 in 10.0 mi Variable 3.5 mph - N/A   Clear
7:53 PM 81.0 °F 83.0 °F 66.0 °F 60% 30.01 in 10.0 mi SW 3.5 mph - N/A   Clear
8:53 PM 79.0 °F - 68.0 °F 69% 30.02 in 10.0 mi WSW 3.5 mph - N/A   Clear
9:53 PM 78.1 °F - 68.0 °F 71% 30.02 in 10.0 mi West 3.5 mph - N/A   Clear
10:53 PM 77.0 °F - 69.1 °F 76% 30.02 in 10.0 mi West 4.6 mph - N/A   Clear
11:53 PM 77.0 °F - 69.1 °F 76% 30.02 in 10.0 mi West 4.6 mph - N/A   Clear